| time (UTC) | temp F | wind direction | speed knots | gust knots | rain 1hr in | rain 24hr in | rain mn in | humidity % | barometer mb |
| 20260507182703 | 62 | 287 | 4.3 | 13.0 | 0.00 | 0.00 | 0.00 | 53 | 1012.1 |
| 20260507181805 | 63 | 279 | 0.9 | 5.2 | 0.00 | 0.00 | 0.00 | 59 | 1011.4 |
| 20260507180904 | 63 | 114 | 0.9 | 2.6 | 0.00 | 0.00 | 0.00 | 60 | 1010.9 |
| 20260507180003 | 64 | 125 | 0.9 | 6.1 | 0.00 | 0.00 | 0.00 | 58 | 1010.4 |
| 20260507175405 | 64 | 120 | 0.9 | 6.1 | 0.00 | 0.00 | 0.00 | 58 | 1010.4 |
| 20260507174505 | 65 | 119 | 0.9 | 5.2 | 0.00 | 0.00 | 0.00 | 56 | 1010.2 |
| 20260507173605 | 65 | 121 | 0.9 | 5.2 | 0.00 | 0.00 | 0.00 | 55 | 1010.1 |
| 20260507172703 | 66 | 113 | 1.7 | 7.0 | 0.00 | 0.00 | 0.00 | 53 | 1009.9 |
| 20260507171805 | 67 | 126 | 1.7 | 7.8 | 0.00 | 0.00 | 0.00 | 50 | 1009.9 |
| 20260507170903 | 69 | 120 | 1.7 | 6.1 | 0.00 | 0.00 | 0.00 | 49 | 1009.7 |
| 20260507170004 | 69 | 154 | 1.7 | 6.1 | 0.00 | 0.00 | 0.00 | 48 | 1009.9 |
| 20260507165620 | 69 | 118 | 1.7 | 5.2 | 0.00 | 0.00 | 0.00 | 48 | 1009.7 |
| 20260507164503 | 70 | 147 | 1.7 | 8.7 | 0.00 | 0.00 | 0.00 | 49 | 1009.9 |
| 20260507163605 | 70 | 108 | 2.6 | 8.7 | 0.00 | 0.00 | 0.00 | 49 | 1009.8 |
| 20260507162705 | 71 | 129 | 2.6 | 8.7 | 0.00 | 0.00 | 0.00 | 49 | 1009.8 |
| 20260507161804 | 72 | 135 | 1.7 | 6.1 | 0.00 | 0.00 | 0.00 | 48 | 1009.6 |
| 20260507160905 | 72 | 138 | 1.7 | 7.0 | 0.00 | 0.00 | 0.00 | 48 | 1009.5 |
| 20260507160004 | 72 | 149 | 1.7 | 7.8 | 0.00 | 0.00 | 0.00 | 47 | 1009.5 |
| 20260507155405 | 73 | 97 | 1.7 | 8.7 | 0.00 | 0.00 | 0.00 | 45 | 1009.5 |
| 20260507154505 | 72 | 118 | 2.6 | 8.7 | 0.00 | 0.00 | 0.00 | 46 | 1009.6 |
| 20260507153818 | 73 | 117 | 1.7 | 7.8 | 0.00 | 0.00 | 0.00 | 43 | 1009.5 |
| 20260507152703 | 74 | 124 | 2.6 | 8.7 | 0.00 | 0.00 | 0.00 | 46 | 1009.7 |
| 20260507151803 | 73 | 149 | 1.7 | 6.1 | 0.00 | 0.00 | 0.00 | 46 | 1009.6 |
| 20260507150903 | 72 | 118 | 2.6 | 12.2 | 0.00 | 0.00 | 0.00 | 46 | 1009.7 |
| 20260507150005 | 72 | 97 | 3.5 | 12.2 | 0.00 | 0.00 | 0.00 | 49 | 1009.6 |
| 20260507145619 | 71 | 118 | 2.6 | 12.2 | 0.00 | 0.00 | 0.00 | 51 | 1009.6 |
| 20260507144505 | 72 | 118 | 2.6 | 7.8 | 0.00 | 0.00 | 0.00 | 53 | 1009.8 |
| 20260507143605 | 72 | 137 | 1.7 | 9.6 | 0.00 | 0.00 | 0.00 | 52 | 1009.8 |
| 20260507142703 | 72 | 108 | 2.6 | 9.6 | 0.00 | 0.00 | 0.00 | 53 | 1009.9 |
| 20260507141803 | 72 | 112 | 2.6 | 9.6 | 0.00 | 0.00 | 0.00 | 53 | 1010.0 |
| 20260507140905 | 69 | 112 | 1.7 | 7.8 | 0.00 | 0.00 | 0.00 | 56 | 1010.0 |
| 20260507140006 | 69 | 111 | 1.7 | 7.0 | 0.00 | 0.00 | 0.00 | 58 | 1009.9 |
| 20260507135404 | 70 | 129 | 1.7 | 5.2 | 0.00 | 0.00 | 0.00 | 55 | 1010.1 |
| 20260507134503 | 72 | 152 | 1.7 | 7.8 | 0.00 | 0.00 | 0.00 | 53 | 1010.1 |
| 20260507133604 | 71 | 131 | 2.6 | 9.6 | 0.00 | 0.00 | 0.00 | 53 | 1010.2 |
| 20260507132703 | 70 | 108 | 2.6 | 9.6 | 0.00 | 0.00 | 0.00 | 55 | 1010.4 |
| 20260507131803 | 69 | 140 | 2.6 | 7.0 | 0.00 | 0.00 | 0.00 | 58 | 1010.4 |
| 20260507131119 | 69 | 119 | 2.6 | 8.7 | 0.00 | 0.00 | 0.00 | 56 | 1010.2 |
| 20260507130005 | 72 | 93 | 1.7 | 7.8 | 0.00 | 0.00 | 0.00 | 52 | 1010.3 |
| 20260507125405 | 72 | 64 | 2.6 | 7.8 | 0.00 | 0.00 | 0.00 | 51 | 1010.4 |
| 20260507124504 | 73 | 80 | 2.6 | 9.6 | 0.00 | 0.00 | 0.00 | 49 | 1010.3 |
| 20260507123604 | 75 | 125 | 2.6 | 11.3 | 0.00 | 0.00 | 0.00 | 46 | 1010.7 |
| 20260507122705 | 74 | 155 | 2.6 | 11.3 | 0.00 | 0.00 | 0.00 | 45 | 1010.8 |
| 20260507121804 | 74 | 124 | 1.7 | 8.7 | 0.00 | 0.00 | 0.00 | 43 | 1010.7 |
| 20260507120904 | 74 | 77 | 2.6 | 11.3 | 0.00 | 0.00 | 0.00 | 45 | 1010.5 |
| 20260507120218 | 74 | 121 | 2.6 | 13.9 | 0.00 | 0.00 | 0.00 | 47 | 1010.7 |
| 20260507115618 | 73 | 73 | 3.5 | 13.9 | 0.00 | 0.00 | 0.00 | 47 | 1010.7 |
| 20260507114503 | 71 | 89 | 2.6 | 7.0 | 0.00 | 0.00 | 0.00 | 53 | 1010.6 |
| 20260507113603 | 71 | 98 | 2.6 | 9.6 | 0.00 | 0.00 | 0.00 | 52 | 1010.8 |
| 20260507112703 | 71 | 125 | 2.6 | 7.8 | 0.00 | 0.00 | 0.00 | 53 | 1010.9 |
| 20260507111803 | 69 | 97 | 2.6 | 7.8 | 0.00 | 0.00 | 0.00 | 59 | 1010.9 |
| 20260507110903 | 67 | 137 | 2.6 | 7.0 | 0.00 | 0.00 | 0.00 | 60 | 1011.2 |
| 20260507110218 | 68 | 140 | 2.6 | 13.0 | 0.00 | 0.00 | 0.00 | 58 | 1011.0 |
| 20260507105405 | 69 | 104 | 2.6 | 9.6 | 0.00 | 0.00 | 0.00 | 58 | 1011.2 |
| 20260507104504 | 70 | 142 | 2.6 | 7.0 | 0.00 | 0.00 | 0.00 | 55 | 1011.0 |
| 20260507103605 | 70 | 125 | 2.6 | 7.0 | 0.00 | 0.00 | 0.00 | 53 | 1011.1 |
| 20260507102705 | 69 | 90 | 2.6 | 8.7 | 0.00 | 0.00 | 0.00 | 55 | 1011.2 |
| 20260507101803 | 69 | 119 | 3.5 | 8.7 | 0.00 | 0.00 | 0.00 | 54 | 1011.3 |
| 20260507100903 | 68 | 91 | 2.6 | 7.8 | 0.00 | 0.00 | 0.00 | 57 | 1011.1 |
| 20260507100220 | 67 | 66 | 1.7 | 7.8 | 0.00 | 0.00 | 0.00 | 58 | 1011.3 |
| 20260507095617 | 68 | 124 | 1.7 | 7.8 | 0.00 | 0.00 | 0.00 | 56 | 1011.3 |
| 20260507094505 | 67 | 157 | 1.7 | 7.8 | 0.00 | 0.00 | 0.00 | 58 | 1011.5 |
| 20260507093605 | 66 | 115 | 1.7 | 5.2 | 0.00 | 0.00 | 0.00 | 61 | 1011.5 |
| 20260507092704 | 65 | 108 | 1.7 | 5.2 | 0.00 | 0.00 | 0.00 | 66 | 1011.6 |
| 20260507091805 | 64 | 140 | 0.9 | 2.6 | 0.00 | 0.00 | 0.00 | 65 | 1011.9 |
| 20260507090903 | 64 | 108 | 1.7 | 7.0 | 0.00 | 0.00 | 0.00 | 66 | 1012.2 |
| 20260507090005 | 63 | 102 | 1.7 | 7.0 | 0.00 | 0.00 | 0.00 | 67 | 1012.0 |
| 20260507085403 | 63 | 117 | 0.9 | 6.1 | 0.00 | 0.00 | 0.00 | 67 | 1011.9 |
| 20260507084504 | 63 | 76 | 0.9 | 5.2 | 0.00 | 0.00 | 0.00 | 66 | 1012.0 |
| 20260507083819 | 62 | 111 | 0.9 | 5.2 | 0.00 | 0.00 | 0.00 | 67 | 1011.5 |
| 20260507082919 | 61 | 157 | 0.9 | 6.1 | 0.00 | 0.00 | 0.00 | 68 | 1011.6 |
| 20260507082018 | 61 | 113 | 0.9 | 5.2 | 0.00 | 0.00 | 0.00 | 68 | 1011.8 |
| 20260507081120 | 61 | 106 | 1.7 | 5.2 | 0.00 | 0.00 | 0.00 | 69 | 1011.3 |
| 20260507080219 | 60 | 155 | 0.9 | 2.6 | 0.00 | 0.00 | 0.00 | 70 | 1011.3 |
| 20260507075405 | 60 | 146 | 0.9 | 3.5 | 0.00 | 0.00 | 0.00 | 71 | 1011.0 |
| 20260507074503 | 60 | 129 | 0.9 | 5.2 | 0.00 | 0.00 | 0.00 | 70 | 1011.2 |
| 20260507073603 | 60 | 135 | 0.9 | 5.2 | 0.00 | 0.00 | 0.00 | 68 | 1011.3 |
| 20260507072705 | 60 | 123 | 1.7 | 5.2 | 0.00 | 0.00 | 0.00 | 68 | 1011.1 |
| 20260507071805 | 60 | 105 | 0.9 | 3.5 | 0.00 | 0.00 | 0.00 | 69 | 1011.1 |
| 20260507070903 | 60 | 142 | 1.7 | 5.2 | 0.00 | 0.00 | 0.00 | 69 | 1011.0 |
| 20260507070008 | 60 | 136 | 0.9 | 5.2 | 0.00 | 0.00 | 0.00 | 69 | 1010.8 |
| 20260507065618 | 60 | 135 | 0.9 | 5.2 | 0.00 | 0.00 | 0.00 | 69 | 1010.6 |
| 20260507064505 | 60 | 183 | 0.9 | 2.6 | 0.00 | 0.00 | 0.00 | 70 | 1010.8 |
| 20260507063605 | 59 | 120 | 0.9 | 3.5 | 0.00 | 0.00 | 0.00 | 71 | 1010.5 |
| 20260507062703 | 59 | 152 | 0.9 | 3.5 | 0.00 | 0.00 | 0.00 | 71 | 1010.5 |
| 20260507062019 | 59 | 122 | 1.7 | 5.2 | 0.00 | 0.00 | 0.00 | 71 | 1010.1 |
| 20260507060905 | 59 | 90 | 1.7 | 6.1 | 0.00 | 0.00 | 0.00 | 71 | 1010.2 |
| 20260507060218 | 59 | 78 | 0.9 | 5.2 | 0.00 | 0.00 | 0.00 | 72 | 1010.3 |
| 20260507055403 | 59 | 115 | 0.9 | 5.2 | 0.00 | 0.00 | 0.00 | 71 | 1010.0 |
| 20260507054505 | 59 | 120 | 1.7 | 3.5 | 0.00 | 0.00 | 0.00 | 72 | 1009.9 |
| 20260507053818 | 59 | 92 | 1.7 | 5.2 | 0.00 | 0.00 | 0.00 | 72 | 1009.8 |
| 20260507052704 | 58 | 144 | 1.7 | 6.1 | 0.00 | 0.00 | 0.00 | 72 | 1009.6 |
| 20260507051805 | 58 | 156 | 0.9 | 3.5 | 0.00 | 0.00 | 0.00 | 72 | 1009.9 |
| 20260507050903 | 58 | 142 | 1.7 | 5.2 | 0.00 | 0.00 | 0.00 | 73 | 1010.1 |
| 20260507050003 | 58 | 115 | 1.7 | 5.2 | 0.00 | 0.00 | 0.00 | 73 | 1010.1 |
| 20260507045405 | 58 | 154 | 1.7 | 5.2 | 0.00 | 0.00 | 0.00 | 73 | 1009.8 |
| 20260507044505 | 58 | 114 | 1.7 | 5.2 | 0.00 | 0.00 | 0.00 | 73 | 1009.8 |
| 20260507043818 | 58 | 93 | 1.7 | 5.2 | 0.00 | 0.00 | 0.00 | 73 | 1009.9 |
| 20260507042919 | 57 | 121 | 1.7 | 6.1 | 0.00 | 0.00 | 0.00 | 74 | 1009.8 |
| 20260507041803 | 58 | 115 | 1.7 | 7.0 | 0.00 | 0.00 | 0.00 | 73 | 1010.0 |
| 20260507040905 | 58 | 151 | 1.7 | 5.2 | 0.00 | 0.00 | 0.00 | 74 | 1009.5 |
| 20260507040003 | 58 | 109 | 1.7 | 5.2 | 0.00 | 0.00 | 0.00 | 73 | 1009.6 |
| 20260507035619 | 57 | 98 | 0.9 | 2.6 | 0.00 | 0.00 | 0.00 | 74 | 1009.3 |
| 20260507034505 | 58 | 136 | 0.9 | 6.1 | 0.00 | 0.00 | 0.00 | 73 | 1009.3 |
| 20260507033605 | 58 | 149 | 0.9 | 2.6 | 0.00 | 0.00 | 0.00 | 73 | 1009.4 |
| 20260507032704 | 58 | 154 | 1.7 | 5.2 | 0.00 | 0.00 | 0.00 | 73 | 1009.5 |
| 20260507031803 | 57 | 167 | 1.7 | 5.2 | 0.00 | 0.00 | 0.00 | 73 | 1009.5 |
| 20260507031117 | 57 | 146 | 1.7 | 5.2 | 0.00 | 0.00 | 0.00 | 73 | 1009.3 |
| 20260507030005 | 57 | 127 | 1.7 | 5.2 | 0.00 | 0.00 | 0.00 | 73 | 1009.3 |
| 20260507025403 | 57 | 144 | 0.9 | 3.5 | 0.00 | 0.00 | 0.00 | 73 | 1009.2 |
| 20260507024503 | 57 | 155 | 0.9 | 3.5 | 0.00 | 0.00 | 0.00 | 74 | 1009.2 |
| 20260507023605 | 57 | 135 | 1.7 | 6.1 | 0.00 | 0.00 | 0.00 | 73 | 1009.4 |
| 20260507022705 | 57 | 105 | 0.9 | 6.1 | 0.00 | 0.00 | 0.00 | 73 | 1009.5 |
| 20260507021805 | 57 | 139 | 1.7 | 5.2 | 0.00 | 0.00 | 0.00 | 73 | 1009.6 |
| 20260507020905 | 57 | 108 | 1.7 | 5.2 | 0.00 | 0.00 | 0.00 | 73 | 1009.6 |
| 20260507020003 | 57 | 148 | 0.9 | 3.5 | 0.00 | 0.00 | 0.00 | 74 | 1009.4 |
| 20260507015403 | 57 | 133 | 0.9 | 2.6 | 0.00 | 0.00 | 0.00 | 74 | 1009.2 |
| 20260507014503 | 57 | 147 | 0.9 | 2.6 | 0.00 | 0.00 | 0.00 | 74 | 1009.3 |
| 20260507013603 | 57 | 118 | 0.9 | 3.5 | 0.00 | 0.00 | 0.00 | 75 | 1009.6 |
| 20260507012704 | 58 | 125 | 0.9 | 3.5 | 0.00 | 0.00 | 0.00 | 74 | 1009.2 |
| 20260507011805 | 58 | 137 | 0.9 | 7.0 | 0.00 | 0.00 | 0.00 | 73 | 1009.3 |
| 20260507010905 | 58 | 94 | 0.9 | 7.0 | 0.00 | 0.00 | 0.00 | 73 | 1009.2 |
| 20260507010005 | 59 | 112 | 0.9 | 3.5 | 0.00 | 0.00 | 0.00 | 72 | 1009.2 |
| 20260507005403 | 59 | 124 | 0.9 | 3.5 | 0.00 | 0.00 | 0.00 | 73 | 1009.3 |
| 20260507004503 | 58 | 111 | 0.9 | 3.5 | 0.00 | 0.00 | 0.00 | 74 | 1009.1 |
| 20260507003603 | 58 | 132 | 0.9 | 3.5 | 0.00 | 0.00 | 0.00 | 76 | 1009.4 |
| 20260507002918 | 58 | 128 | 0.9 | 5.2 | 0.00 | 0.00 | 0.00 | 76 | 1009.4 |
| 20260507001803 | 58 | 105 | 0.9 | 3.5 | 0.00 | 0.00 | 0.00 | 77 | 1009.4 |
| 20260507001119 | 58 | 124 | 0.9 | 3.5 | 0.00 | 0.00 | 0.00 | 77 | 1009.5 |
| 20260507000005 | 58 | 153 | 0.9 | 5.2 | 0.00 | 0.00 | 0.00 | 77 | 1009.7 |
| 20260506235425 | 58 | 136 | 0.9 | 2.6 | 0.00 | 0.00 | 0.00 | 77 | 1009.5 |
| 20260506234719 | 59 | 138 | 0.9 | 3.5 | 0.00 | 0.00 | 0.00 | 76 | 1009.6 |
| 20260506233603 | 59 | 96 | 1.7 | 5.2 | 0.00 | 0.00 | 0.00 | 76 | 1009.8 |
| 20260506232705 | 59 | 135 | 0.9 | 3.5 | 0.00 | 0.00 | 0.00 | 76 | 1009.6 |
| 20260506231805 | 59 | 129 | 0.9 | 3.5 | 0.00 | 0.00 | 0.00 | 76 | 1009.5 |
| 20260506230903 | 59 | 114 | 0.9 | 3.5 | 0.00 | 0.00 | 0.00 | 75 | 1009.7 |
| 20260506230006 | 59 | 104 | 0.9 | 3.5 | 0.00 | 0.00 | 0.00 | 75 | 1009.5 |
| 20260506225403 | 59 | 106 | 0.9 | 6.1 | 0.00 | 0.00 | 0.00 | 74 | 1009.7 |
| 20260506224505 | 60 | 110 | 0.9 | 6.1 | 0.00 | 0.00 | 0.00 | 74 | 1009.5 |
| 20260506223604 | 60 | 121 | 0.9 | 2.6 | 0.00 | 0.00 | 0.00 | 73 | 1009.5 |
| 20260506222705 | 60 | 170 | 0.9 | 5.2 | 0.00 | 0.00 | 0.00 | 73 | 1009.8 |
| 20260506221803 | 60 | 146 | 0.9 | 5.2 | 0.00 | 0.00 | 0.00 | 72 | 1009.5 |
| 20260506220903 | 60 | 123 | 0.9 | 2.6 | 0.00 | 0.00 | 0.00 | 71 | 1009.5 |
| 20260506220219 | 60 | 130 | 0.9 | 2.6 | 0.00 | 0.00 | 0.00 | 71 | 1009.4 |
| 20260506215405 | 60 | 142 | 0.9 | 3.5 | 0.00 | 0.00 | 0.00 | 71 | 1009.5 |
| 20260506214718 | 60 | 135 | 0.9 | 5.2 | 0.00 | 0.00 | 0.00 | 71 | 1009.4 |
| 20260506213605 | 59 | 109 | 0.9 | 2.6 | 0.00 | 0.00 | 0.00 | 72 | 1009.5 |
| 20260506212919 | 59 | 88 | 0.9 | 2.6 | 0.00 | 0.00 | 0.00 | 73 | 1009.2 |
| 20260506212018 | 59 | 108 | 0.9 | 1.7 | 0.00 | 0.00 | 0.00 | 73 | 1009.0 |
| 20260506211117 | 59 | 105 | 0.9 | 1.7 | 0.00 | 0.00 | 0.00 | 72 | 1009.0 |
| 20260506210003 | 58 | 135 | 0.9 | 3.5 | 0.00 | 0.00 | 0.00 | 73 | 1009.2 |
| 20260506205405 | 58 | 125 | 0.0 | 1.7 | 0.00 | 0.00 | 0.00 | 74 | 1008.8 |
| 20260506204503 | 58 | 110 | 0.9 | 1.7 | 0.00 | 0.00 | 0.00 | 74 | 1009.1 |
| 20260506203817 | 58 | 109 | 0.0 | 1.7 | 0.00 | 0.00 | 0.00 | 76 | 1009.0 |
| 20260506202703 | 58 | 112 | 0.0 | 0.9 | 0.00 | 0.00 | 0.00 | 76 | 1009.0 |
| 20260506201805 | 58 | 112 | 0.0 | 0.9 | 0.00 | 0.00 | 0.00 | 75 | 1009.1 |
| 20260506200905 | 58 | 0 | 0.0 | 0.0 | 0.00 | 0.00 | 0.00 | 74 | 1008.9 |
| 20260506200005 | 59 | 0 | 0.0 | 0.0 | 0.00 | 0.00 | 0.00 | 74 | 1009.1 |
| 20260506195405 | 59 | 0 | 0.0 | 0.0 | 0.00 | 0.00 | 0.00 | 73 | 1008.8 |
| 20260506194719 | 59 | 113 | 0.0 | 0.9 | 0.00 | 0.00 | 0.00 | 73 | 1008.7 |
| 20260506193604 | 59 | 0 | 0.0 | 0.0 | 0.00 | 0.00 | 0.00 | 74 | 1008.6 |
| 20260506192705 | 59 | 0 | 0.0 | 0.0 | 0.00 | 0.00 | 0.00 | 73 | 1008.6 |
| 20260506191803 | 60 | 0 | 0.0 | 0.0 | 0.00 | 0.00 | 0.00 | 71 | 1008.5 |
| 20260506191119 | 61 | 112 | 0.0 | 0.9 | 0.00 | 0.00 | 0.00 | 68 | 1008.5 |
| 20260506190003 | 62 | 98 | 0.0 | 3.5 | 0.00 | 0.00 | 0.00 | 67 | 1008.2 |
| 20260506185403 | 62 | 120 | 0.0 | 1.7 | 0.00 | 0.00 | 0.00 | 66 | 1008.2 |
| 20260506184505 | 62 | 166 | 0.9 | 3.5 | 0.00 | 0.00 | 0.00 | 66 | 1008.0 |
| 20260506183818 | 63 | 118 | 0.9 | 7.0 | 0.00 | 0.00 | 0.00 | 65 | 1007.9 |